This is the latest recevied weather packets stored in our database for station/object PY3MO-13. If no packets are shown the sender has not sent any weather packets the latest 10 day(s).
| Time | Temp. | Humidity | Pressure | Rain* | Wind** | Luminosity | Snow |
|---|---|---|---|---|---|---|---|
| 1778259008 | 17.78° C | 43% | 1006.7 hPa | 0 mm | - | - | - |
| 1778258707 | 17.78° C | 44% | 1006.8 hPa | 0 mm | - | - | - |
| 1778258407 | 17.78° C | 45% | 1006.8 hPa | 0 mm | - | - | - |
| 1778258106 | 17.78° C | 48% | 1006.8 hPa | 0 mm | - | - | - |
| 1778257808 | 17.78° C | 47% | 1006.8 hPa | 0 mm | - | - | - |
| 1778257508 | 17.78° C | 47% | 1006.8 hPa | 0 mm | - | - | - |
| 1778257207 | 17.78° C | 50% | 1006.8 hPa | 0 mm | - | - | - |
| 1778256906 | 17.78° C | 51% | 1007 hPa | 0 mm | - | - | - |
| 1778256606 | 17.78° C | 51% | 1006.9 hPa | 0 mm | - | - | - |
| 1778256308 | 17.22° C | 56% | 1007 hPa | 0 mm | - | - | - |
| 1778256007 | 16.67° C | 55% | 1007.1 hPa | 0 mm | - | - | - |
| 1778255706 | 17.22° C | 56% | 1007.2 hPa | 0 mm | - | - | - |
| 1778255406 | 17.22° C | 59% | 1007.1 hPa | 0 mm | - | - | - |
| 1778255107 | 16.67° C | 60% | 1007.1 hPa | 0 mm | - | - | - |
| 1778254807 | 16.67° C | 60% | 1007.3 hPa | 0 mm | - | - | - |
| 1778254506 | 16.67° C | 60% | 1007.4 hPa | 0 mm | - | - | - |
| 1778254206 | 16.67° C | 61% | 1007.5 hPa | 0 mm | - | - | - |
| 1778253908 | 16.67° C | 62% | 1007.3 hPa | 0 mm | - | - | - |
| 1778253607 | 16.11° C | 64% | 1007.7 hPa | 0 mm | - | - | - |
| 1778253306 | 16.11° C | 65% | 1007.7 hPa | 0 mm | - | - | - |
| 1778253007 | 16.11° C | 64% | 1007.6 hPa | 0 mm | - | - | - |
| 1778252706 | 16.11° C | 68% | 1007.5 hPa | 0 mm | - | - | - |
| 1778252408 | 16.11° C | 69% | 1007.6 hPa | 0 mm | - | - | - |
| 1778252108 | 15.56° C | 70% | 1007.7 hPa | 0 mm | - | - | - |
| 1778251807 | 15.56° C | 71% | 1007.7 hPa | 0 mm | - | - | - |
* Rain latest hour (hover to see other rain measurements)
** Current wind speed in m/s (hover to see current wind gust speed)